Location: Marsån
(66.4167°N, 22.2833°E)
Time: 12:01:37
(UTC+00:00)

MetOp-A - Pass Details

Date: 24 February 2024
Orbit: 526 x 794 km, 98.4° (Epoch: 15 April)

Event Time Altitude Azimuth Distance (km) Brightness Sun altitude
Exits shadow 19:29:41 62° 161° (SSE) 895 4.0 -24.3°
Maximum altitude 19:30:37 88° 246° (WSW) 800 4.0 -24.3°
Drops below altitude 10° 19:35:49 10° 338° (NNW) 2,322 7.3 -24.8°
Sets 19:38:05 0° 339° (NNW) 3,222 8.1 -24.9°
